STARLINK-31872, 59922

Orbit data source: Space-Track

STARLINK-31872, 59922 is a payload satellite owned by SpaceX/Seattle (US) in LEO that was launched on Sat, 01 Jun 2024 UTC via an FALCON 9 launch vehicle from the Air Force Eastern Test Range (AFETR). Payload-class satellites include a variety of spacecraft equipped with specific instruments for various scientific and technological missions. These include communications satellites like Starlink; space stations such as the ISS; scientific satellites like the Hubble; Earth observation satellites from companies like Planet Labs, Umbra, and HawkEye 360; GPS; miniature CubeSats for education and research; and military/defense satellites.

Loading next visibility...
Identifier
59922, 2024-106A
Orbit
LEO
Country
Flag of USUS
Related business
Manufacturer
SpaceX/Seattle
Mission
Operational Commercial Communications
Bus & Motor
STARLINK V2M, Unknown motor
Mass
730 kg wet, ~700 kg dry
Launch date (UTC)
2024-06-01 (2 years ago)
Launch vehicle
FALCON 9
Launch site
Air Force Eastern Test Range (AFETR)
Object type
Payload
Rocket body
Debris
Shape & HBR
Box + 2 Pan, 17.7 m
Radar Cross Section
33.884 m², Large (>1 m²)

Expand to show TLE details & history
Last TLE update: 20 hours ago

TLE from 20 hours ago
0 STARLINK-31872
1 59922U 24106A   26127.37241350 -.00001208  00000-0 -34400-4 0  9991
2 59922  43.0066   1.4512 0001119 251.5815 108.4915 15.27568566109537
Epoch: 2026-05-07T08:56Z
TLE epoch observation values (Epoch: 2026-05-07T08:56:16.526Z)
Latitude
-0.00002°
Longitude
2.16282°
Altitude
483.103 km
Speed
7.626 km/s
True Right ascension
00h 05m 48s
True Declination
0° 00' 00"
Sunlit
Object was in daylight at epoch
Visualization orbit readout
Latitude
Unknown
Longitude
Unknown
Altitude
Unknown
Speed
Unknown
Apparent Right ascension
Unknown
Apparent Declination
Unknown
Sunlit
N/A
Visualization observer readout
Local Sidereal Time
13:26:06
Azimuth
Unknown
Elevation
Unknown
Doppler factor
Unknown
Orbital elements
Apogee altitude
485.795 km
Perigee altitude
484.259 km
Semi-major axis
6,863.164 km
Eccentricity
0.00011
Inclination
43.0066°
RAAN
1.4512°
Arg. of periapsis
251.5815°
True anomaly
108.50366°
Mean anomaly
108.4915°
Eccentric anomaly
108.49758°
Mean motion
3.8173 °/min
Orbital period
94.31 mins
BSTAR
-0.0000344
Loading maneuver chart data...
Computing Atmospheric mass density...
Loading historical data...
Loading historical data...
Loading historical data...
Loading historical data...
Loading historical data...
Loading historical data...
Loading historical data...

Documentation

Showing up to 5 results
|